Terminal Aerodrome Forecast
Issued by NWS

Home | Current Version | Previous Version | Text Only | Print | Product List | Glossary On
Versions: 1 2 3 4 5 6 7 8 9 10 11 12 13 14 15 16 17 18 19 20 21 22 23 24 25 26 27 28 29 30 31 32 33 34 35 36 37 38 39 40 41 42 43 44 45 46 47 48 49 50
000
FTUS44 KHGX 131120
TAFIAH
TAF
KIAH 131120Z 1312/1418 24004KT P6SM FEW050 SCT250
     FM132000 14008KT P6SM VCTS SCT050CB SCT250
     FM140100 17005KT P6SM SCT250
     FM141500 20007KT P6SM SCT045=

USA.gov is the U.S. government's official web portal to all federal, state and local government web resources and services.